Regional Weather Roundup
Issued by NWS Jackson, KY

Home | Current Version | Previous Version | Text Only | Print | Product List | Glossary On
Versions: 1 2 3 4 5 6 7 8 9 10 11 12 13 14 15 16 17 18 19 20 21 22 23 24 25 26 27
000
ASUS43 KJKL 221710
RWRJKL

EAST KENTUCKY HOURLY WEATHER ROUNDUP
NATIONAL WEATHER SERVICE JACKSON KY
1200 PM EST THU FEB 22 2018

NOTE: "FAIR" INDICATES FEW OR NO CLOUDS BELOW 12,000 FEET WITH
NO SIGNIFICANT WEATHER AND/OR OBSTRUCTIONS TO VISIBILITY.

* THESE REPORTS ARE NOT UNDER NWS QUALITY CONTROL AND MAY NOT
  REPORT WEATHER SUCH AS PRECIPITATION AND FOG.

KYZ079-080-083-085-087-088-110-112-115-119-120-221800
...EASTERN KENTUCKY...

CITY           SKY/WX    TMP DP  RH WIND       PRES   REMARKS
JACKSON        CLOUDY    55  52  89 CALM      30.39R
LONDON         CLOUDY    68  61  78 W10       30.37R
SOMERSET*      CLOUDY    59  59 100 CALM      30.40R
WILLIAMSBURG*  PTSUNNY   70  59  68 SW7G17    30.38R
MIDDLESBORO*   PTSUNNY   74  60  62 SW13G21   30.39R
HARLAN APT*    CLOUDY    72  55  56 S6        30.38R
PIKE CO APT*   PTSUNNY   59  59 100 NW14      30.37R
BIG SANDY APT* CLOUDY    50  50 100 N3        30.39R
MOREHEAD APT*  LGT RAIN  46  45  93 N5        30.42S
ASHLAND*       CLOUDY    45  43  93 NW12G24   30.44R
$$

KYZ035-036-041-042-044-050-067-078-099-221800
...CENTRAL KENTUCKY...

CITY           SKY/WX    TMP DP  RH WIND       PRES   REMARKS
MT STERLING*   CLOUDY    46  46 100 CALM      30.41S
FLEMING/MASON* CLOUDY    43  42  98 N10       30.44S
DANVILLE*      DRIZZLE   50  48  93 N5        30.42R
LEXINGTON      LGT RAIN  47  44  90 N10       30.41R FOG
FRANKFORT      CLOUDY    46  41  82 NE8       30.40S
LOUISVILLE     CLOUDY    47  42  83 E7        30.42R
LEBANON*       CLOUDY    48  48 100 N3        30.40R
GLASGOW*       CLOUDY   N/A N/A N/A CALM      30.38S
BOWLING GREEN  CLOUDY    55  54  96 SE6       30.38R FOG
$$

KYZ091>093-OHZ055-061-077-WVZ005-015-034-035-042-221800
...SOUTHERN OHIO/WEST VIRGINIA...

CITY           SKY/WX    TMP DP  RH WIND       PRES   REMARKS
COVINGTON      CLOUDY    44  42  93 NE15      30.43F
COLUMBUS       CLOUDY    44  40  85 NE13      30.48F
DAYTON         CLOUDY    40  40 100 NE14      30.49F WCI  32
WILMINGTON     CLOUDY    41  41 100 NE16      30.45F
HUNTINGTON     CLOUDY    46  42  86 N3        30.41R
CHARLESTON     CLOUDY    49  46  90 NW3       30.38R
BECKLEY          N/A     72  52  49 SW25G39   30.37F
BLUEFIELD      PTSUNNY   71  51  49 SW14G31   30.42F
LOGAN CO APT*    N/A     59  55  88 NW6       30.35R
$$

VAZ002-007-008-TNZ017-027-036-066-071-221800
...SOUTHWEST VIRGINIA/EAST TENNESSEE...

CITY           SKY/WX    TMP DP  RH WIND       PRES   REMARKS
WISE*          PTSUNNY   70  57  64 SW17G26   30.42F
JONESVILLE*      N/A     75  59  57 SW12G20   30.40F
ABINGDON*      PTSUNNY   76  55  47 W18G28    30.42S
BRISTOL          N/A     78  56  46 SW20G30   30.39F
MORRISTOWN*    SUNNY     77  59  53 W17G25    30.39F
SEVIERVILLE*   MOSUNNY   79  61  53 W8G14     30.38F
KNOXVILLE      PTSUNNY   76  62  62 SW20      30.38F
LAFOLLETTE*    PTSUNNY   73  61  64 VRB7      30.42R
OAK RIDGE        N/A     76  62  62 S8        30.39S
CROSSVILLE     LGT RAIN  65  61  87 S7        30.42S
NASHVILLE      CLOUDY    57  55  93 NW6       30.39R
$$

...KEY TO REMARKS...
VSB - VISIBILITY IN MILES
WCI - WIND CHILL INDEX
HX  - HEAT INDEX

$$




USA.gov is the U.S. government's official web portal to all federal, state and local government web resources and services.